Belleville, IL

7:20 AM CDT on April 29, 2017 (GMT -0500)
Scott Air Force Base-Midamerica

Weather History for KBLV - May, 2013

Change the Weather History Date:

Friday, May 10, 2013

  Actual Average Record
Temperature  
Mean Temperature 62 °F -  
Max Temperature 70 °F 75 °F 88 °F (1963)
Min Temperature 55 °F 48 °F 29 °F (1966)
Degree Days  
Heating Degree Days 2    
Growing Degree Days 12 (Base 50)    
Moisture  
Dew Point 60 °F    
Average Humidity 87    
Maximum Humidity 100    
Minimum Humidity 69    
Precipitation  
Precipitation 0.06 in - - ()
Sea Level Pressure  
Sea Level Pressure 29.90 in    
Wind  
Wind Speed 7 mph (WNW)    
Max Wind Speed 18 mph    
Max Gust Speed 23 mph    
Visibility 10 miles    
Events Rain    
Averages and records for this station are not official NWS values.
T = Trace of Precipitation, MM = Missing Value Source: NWS Daily Summary

Daily Weather History Graph

Daily Weather History Graph

Search for Another Location

Airport or City:

Trip Planner

Search our weather history database for the weather conditions in past years. The results will help you decide how hot, cold, wet, or windy it might be!

Date:

Astronomy

May. 10, 2013 Rise Set
Actual Time 5:52 AM CDT 7:59 PM CDT
Civil Twilight 5:22 AM CDT 8:29 PM CDT
Nautical Twilight 4:46 AM CDT 9:05 PM CDT
Astronomical Twilight 4:07 AM CDT 9:44 PM CDT
Moon 6:16 AM CDT (5/10) 8:49 PM CDT (5/10)
Length of Visible Light 15h 06m
Length of Day
14h 07m
New Moon, 0% of the Moon is Illuminated
May 10
New Moon
May 17
First Quarter
May 24
Full
May 31
Last Quarter
Jun 8
New

Hourly Weather History & Observations

Time (CDT) Temp. Dew Point Humidity Pressure Visibility Wind Dir Wind Speed Gust Speed Precip Events Conditions
12:19 AM 66.2 °F 60.8 °F 83% 29.87 in 10.0 mi ESE 2.3 mph - N/A Rain Light Rain
12:41 AM 64.4 °F 62.6 °F 94% 29.88 in 10.0 mi South 3.5 mph - N/A   Scattered Clouds
12:58 AM 64.2 °F 63.0 °F 96% 29.89 in 10.0 mi South 6.9 mph - 0.00 in   Partly Cloudy
1:39 AM 64.4 °F 60.8 °F 88% 29.90 in 10.0 mi WSW 16.1 mph 23.0 mph N/A   Light Drizzle
1:58 AM 64.4 °F 61.3 °F 90% 29.89 in 7.0 mi WSW 9.2 mph - 0.02 in Rain Light Rain
2:08 AM 62.6 °F 62.6 °F 100% 29.90 in 8.0 mi SW 10.4 mph - N/A Rain Light Rain
2:13 AM 62.6 °F 62.6 °F 100% 29.89 in 10.0 mi WSW 8.1 mph - N/A Rain Light Rain
2:20 AM 62.6 °F 62.6 °F 100% 29.87 in 10.0 mi SW 3.5 mph - N/A   Mostly Cloudy
2:22 AM 62.6 °F 62.6 °F 100% 29.87 in 10.0 mi Calm Calm - N/A Rain Light Rain
2:32 AM 62.6 °F 62.6 °F 100% 29.85 in 10.0 mi Calm Calm - N/A   Mostly Cloudy
2:58 AM 61.5 °F 61.5 °F 100% 29.83 in 10.0 mi SSW 5.8 mph - 0.03 in   Mostly Cloudy
3:46 AM 60.8 °F 60.8 °F 100% 29.84 in 10.0 mi SSW 3.5 mph - N/A Rain Light Rain
3:58 AM 61.0 °F 61.0 °F 100% 29.85 in 10.0 mi Calm Calm - 0.00 in   Light Drizzle
3:59 AM 60.8 °F 60.8 °F 100% 29.84 in 10.0 mi Calm Calm - N/A   Partly Cloudy
4:58 AM 60.8 °F 60.8 °F 100% 29.86 in 10.0 mi South 8.1 mph - 0.00 in   Clear
5:58 AM 61.0 °F 60.8 °F 99% 29.87 in 10.0 mi South 5.8 mph - 0.01 in   Overcast
6:58 AM 60.3 °F 60.3 °F 100% 29.88 in 10.0 mi WSW 4.6 mph - N/A   Mostly Cloudy
7:58 AM 63.3 °F 62.8 °F 98% 29.88 in 10.0 mi West 5.8 mph - N/A   Mostly Cloudy
8:58 AM 64.8 °F 62.4 °F 92% 29.90 in 10.0 mi WSW 5.8 mph - N/A   Mostly Cloudy
9:58 AM 66.9 °F 62.1 °F 84% 29.88 in 10.0 mi WNW 4.6 mph - N/A   Partly Cloudy
10:08 AM 68.0 °F 62.6 °F 83% 29.88 in 10.0 mi NNW 8.1 mph - N/A   Mostly Cloudy
10:58 AM 67.6 °F 61.3 °F 80% 29.91 in 10.0 mi WNW 6.9 mph - N/A   Overcast
11:33 AM 68.0 °F 62.6 °F 83% 29.90 in 10.0 mi WNW 4.6 mph - N/A   Mostly Cloudy
11:48 AM 68.0 °F 62.6 °F 83% 29.90 in 10.0 mi NW 8.1 mph - N/A   Mostly Cloudy
11:58 AM 68.5 °F 62.1 °F 80% 29.90 in 10.0 mi WNW 6.9 mph - N/A   Mostly Cloudy
12:03 PM 68.0 °F 62.6 °F 83% 29.89 in 10.0 mi WNW 10.4 mph - N/A   Mostly Cloudy
12:43 PM 68.0 °F 60.8 °F 78% 29.88 in 10.0 mi NW 12.7 mph 18.4 mph N/A   Mostly Cloudy
12:48 PM 68.0 °F 60.8 °F 78% 29.88 in 10.0 mi NW 13.8 mph 18.4 mph N/A   Mostly Cloudy
12:53 PM 68.0 °F 60.8 °F 78% 29.88 in 10.0 mi WNW 15.0 mph - N/A   Mostly Cloudy
12:58 PM 68.4 °F 61.5 °F 79% 29.88 in 10.0 mi NW 12.7 mph - N/A   Mostly Cloudy
1:58 PM 67.8 °F 61.0 °F 79% 29.90 in 10.0 mi WNW 12.7 mph - N/A   Mostly Cloudy
2:33 PM 68.0 °F 59.0 °F 73% 29.90 in 10.0 mi NW 16.1 mph - N/A   Mostly Cloudy
2:58 PM 66.2 °F 58.6 °F 77% 29.91 in 10.0 mi NW 13.8 mph - N/A   Overcast
3:03 PM 68.0 °F 59.0 °F 73% 29.90 in 10.0 mi NW 17.3 mph - N/A   Mostly Cloudy
3:58 PM 68.4 °F 57.9 °F 69% 29.90 in 10.0 mi WNW 18.4 mph - N/A   Partly Cloudy
4:33 PM 66.2 °F 59.0 °F 78% 29.90 in 10.0 mi NW 16.1 mph - N/A   Mostly Cloudy
4:58 PM 64.2 °F 58.3 °F 81% 29.92 in 10.0 mi NW 15.0 mph - N/A   Overcast
5:58 PM 61.3 °F 56.8 °F 85% 29.94 in 10.0 mi NNW 11.5 mph 16.1 mph N/A   Overcast
6:03 PM 60.8 °F 57.2 °F 88% 29.93 in 10.0 mi NNW 12.7 mph 16.1 mph N/A   Overcast
6:43 PM 59.0 °F 55.4 °F 88% 29.94 in 10.0 mi NNW 12.7 mph 18.4 mph N/A   Overcast
6:58 PM 59.5 °F 54.7 °F 84% 29.95 in 10.0 mi NW 12.7 mph - N/A   Overcast
7:58 PM 58.6 °F 53.4 °F 83% 29.95 in 10.0 mi NNW 10.4 mph - N/A   Overcast
8:58 PM 58.1 °F 52.5 °F 82% 29.97 in 10.0 mi NNW 9.2 mph - N/A   Overcast
9:58 PM 57.0 °F 50.9 °F 80% 29.99 in 10.0 mi NNW 10.4 mph - N/A   Overcast
10:38 PM 57.2 °F 51.8 °F 82% 29.98 in 10.0 mi NNW 5.8 mph - N/A   Overcast
10:58 PM 57.2 °F 51.8 °F 82% 30.00 in 10.0 mi NNW 8.1 mph - N/A   Overcast
11:58 PM 55.8 °F 50.9 °F 84% 30.01 in 10.0 mi North 4.6 mph - N/A   Overcast